COSMOS 1859

Satellite information

Favourite Embed

Satellite Type and Status

PAYLOADIN ORBIT

Key statistics

Satellite COSMOS 1859 at a glance.

Uptime

14015

Days in orbit

Revolutions

≈ 12.6

Per day

Orbit

LEO

Low Earth Orbit

Inclination

74.0

Latest

Satellite identification and parameters

Extended collection of information and parameters for COSMOS 1859.

Object identification

Identified? True

Debris? False

Object name: COSMOS 1859

International designator: 1987-051H

Object number (NORAD): 18120

Object ID (CCSDS): 18120

Country: COMMONWEALTH OF INDEPENDENT STATES (CIS)

Current information (Y/N): Y

RCS size: MEDIUM

Orbital parameters

Period: 114.472 minutes

Inclination: 74.0048 deg

SMA: 7809.55 km

Apoapsis: 1476.079 km

Periapsis: 1386.75 km

RAAN: 333.2475 deg

Eccentricy: 0.00571921

Argument of periapsis: 2.0221 deg

Mean anomaly: 149.3118 deg

Mean motion: 12.57951116 rev/day

Mean motion (dot): -0.00000005 rev/day2

B* drag term: 0.000066512498 1/REarth

Two-line elements (TLE)

Creation date: Oct. 28, 2025, 7:11 p.m.

Reference frame: TEME

Reference center: EARTH

Epoch: Oct. 28, 2025, 12:34 p.m. UTC

TLE line 0: 0 COSMOS 1859

TLE line 1: 1 18120U 87051H 25301.52417095 -.00000005 00000-0 66512-4 0 9997

TLE line 2: 2 18120 74.0048 333.2475 0057192 2.0221 149.3118 12.57951116761879

Live tracking on map

Real-time ground track for satellite COSMOS 1859.

In-orbit conjunctions

There are no conjunctions computed for COSMOS 1859, at the moment. Check back to stay up to date, as we update our databases every day.

Go to all conjunctions

Associated space launch

Military communications satellites

COSMOS 1859 was lifted into orbit during the mission ‘Kosmos-3M | Strela-1M 321-328’, on board a Kosmos-3M space rocket.

The launch took place on June 16, 1987, 5:51 p.m. from 132/1 (132L).

For more information about the launch, click the button.

Launch to space Kosmos-3M | Strela-1M 321-328
Kosmos-3M | Strela-1M 321-328

Agency: N/A

Status: Launch Successful

Launch date: June 16, 1987, 5:51 p.m. UTC

Rocket: Kosmos-3M

Launch pad: 132/1 (132L)

Location: Plesetsk Cosmodrome, Russian Federation

...

Latest news about this satellite

There are no fresh news available about this satellite. Check back as we update our databases every day.


Newsletter sign-up

Weekly statistics, charts and insights to help you stay on top of the space industry.